Regional Weather Roundup
Issued by NWS

Home | Current Version | Previous Version | Text Only | Print | Product List | Glossary Off
Versions: 1 2 3 4 5 6 7 8 9 10 11 12 13 14 15 16 17 18 19 20 21 22 23 24 25 26 27 28 29 30 31 32 33 34 35 36 37 38 39 40 41 42 43 44 45 46 47 48 49 50

000
ASUS43 KDMX 200207
RWRIA

WEATHER ROUNDUP FOR IOWA
NATIONAL WEATHER SERVICE DES MOINES IA
900 PM CDT TUE AUG 19 2014

NOTE: "FAIR" INDICATES FEW OR NO CLOUDS BELOW 12,000 FEET WITH NO
SIGNIFICANT WEATHER AND/OR OBSTRUCTIONS TO VISIBILITY.

* - THESE STATIONS ARE NOT NWS STATIONS...THUS NOT UNDER NWS
QUALITY CONTROL.  THEY ALSO DO NOT REPORT WEATHER SUCH
AS PRECIPITATION OR FOG.

IAZ001>003-012>014-020>022-031>034-043>046-200300-
   NORTHWEST IOWA

CITY           SKY/WX    TMP DP  RH WIND       PRES   REMARKS
CARROLL *      CLEAR     70  68  94 CALM      29.81S
CHEROKEE *     CLEAR     70  66  88 CALM      29.81R
DENISON *      CLEAR     72  70  94 E5        29.79S
LE MARS *      CLEAR     73  66  78 CALM      29.81R
ORANGE CITY *  CLEAR     75  66  73 CALM      29.82R
SHELDON *      CLEAR     68  66  94 CALM      29.80R
SIOUX CITY     PTCLDY    76  67  73 E5        29.79S
SPENCER        CLEAR     70  66  87 SW5       29.81R
STORM LAKE *   CLEAR     72  68  88 SW5       29.83R
$$

IAZ055>058-069>071-079>083-090>094-200300-
   SOUTHWEST IOWA

CITY           SKY/WX    TMP DP  RH WIND       PRES   REMARKS
ATLANTIC *     CLEAR     73  70  88 CALM      29.80R
AUDUBON *      CLEAR     72  68  88 CALM      29.83R
CLARINDA *     CLEAR     73  72  94 CALM      29.81R
COUNCIL BLFS * CLEAR     77  68  73 SE6       29.78F
CRESTON *      CLEAR     77  66  69 CALM      29.83R
HARLAN  *      CLEAR     72  72 100 CALM      29.84S
LAMONI         CLEAR     78  69  73 CALM      29.81S HX  80
RED OAK *      CLEAR     73  68  83 NE6       29.80R
SHENANDOAH *   CLEAR     77  73  88 E3        29.80R
$$

IAZ047>049-059>061-072>074-084-200300-
   CENTRAL IOWA

CITY           SKY/WX    TMP DP  RH WIND       PRES   REMARKS
AMES           CLEAR     69  67  93 SW6       29.80R
ANKENY *       CLEAR     72  68  88 CALM      29.80S
CHARITON *     CLEAR     77  70  78 CALM      29.81S
DES MOINES     PTCLDY    80  65  59 CALM      29.80R HX  82
GRINNELL*      CLEAR     70  64  83 CALM      29.82R
KNOXVILLE *    CLEAR     75  64  69 CALM      29.80R
MARSHALLTOWN   CLEAR     70  66  87 SW5       29.80R
PELLA *        CLEAR     73  68  83 CALM      29.82R
PERRY *          N/A     70  70 100 CALM      29.81R
$$

IAZ004>006-015-016-023>025-035-036-200300-
   NORTH CENTRAL IOWA

CITY           SKY/WX    TMP DP  RH WIND       PRES   REMARKS
ALGONA *       CLEAR     72  66  83 SW6       29.81R
CLARION *      CLEAR     70  68  94 SW5       29.80R
ESTHERVILLE    CLEAR     69  66  90 SW6       29.80R
FORT DODGE *   CLEAR     70  64  83 CALM      29.82R
MASON CITY     PTCLDY    71  66  84 CALM      29.81R
FOREST CITY *  PTCLDY    72  68  88 CALM      29.80R
IOWA FALLS *     N/A     70  64  83 SW6       29.81R
$$

IAZ007>011-017>019-026>030-037>042-050>054-066-200300-
   NORTHEAST IOWA

CITY           SKY/WX    TMP DP  RH WIND       PRES   REMARKS
CEDAR RAPIDS   CLEAR     70  66  87 CALM      29.79R
CHARLES CITY * PTCLDY    70  66  88 CALM      29.80R
CLINTON *      CLEAR     70  63  78 NW6       29.81R
DECORAH *      PTCLDY    70  64  83 CALM      29.78R
DUBUQUE        CLEAR     68  62  81 W3        29.79R
MONTICELLO *   CLEAR     70  64  83 CALM      29.79R
OELWEIN *      CLEAR     70  66  88 W3        29.80R
WATERLOO       CLEAR     73  66  78 CALM      29.78R
$$

IAZ064-065-067-068-078-200300-
   EAST CENTRAL IOWA

CITY           SKY/WX    TMP DP  RH WIND       PRES   REMARKS
DAVENPORT      CLEAR     69  64  84 W7        29.79R
IOWA CITY      CLEAR     73  66  78 NW3       29.80R
MT. PLEASANT * CLEAR     73  64  73 CALM      29.80R
MUSCATINE *    CLEAR     75  66  73 W3        29.79R
QUAD CITIES    CLEAR     72  65  78 SW5       29.78R
$$

IAZ062-063-075>077-085>089-095>099-200300-
   SOUTHEAST IOWA

CITY           SKY/WX    TMP DP  RH WIND       PRES   REMARKS
BURLINGTON     CLEAR     75  65  70 NW3       29.80R
FAIRFIELD *    CLEAR     70  66  88 CALM      29.81R
FORT MADISON * CLEAR     73  70  88 CALM      29.81R
KEOKUK *       CLEAR     75  73  94 CALM      29.79R
OSKALOOSA *      N/A     72  68  88 CALM      29.81R
CENTERVILLE *  CLEAR     70  70 100 CALM      29.83R
OTTUMWA        CLEAR     71  68  90 CALM      29.80R
WASHINGTON *   CLEAR     73  68  83 NW5       29.80R
$$

ABBREVIATIONS USED IN REMARKS
   TC - TEMPERATURES IN CELSIUS
  WCI - WIND CHILL INDEX
   HX - HEAT INDEX
  VSB - VISIBILITY
$$



USA.gov is the U.S. government's official web portal to all federal, state and local government web resources and services.